Weather History for Evansville, IN

Change the Weather History Date:

Wednesday, April 2, 2014

  Actual Average Record
Temperature  
Mean Temperature 58 °F 52 °F  
Max Temperature 65 °F 63 °F 84 °F (2012)
Min Temperature 50 °F 40 °F 27 °F (2013)
Degree Days  
Heating Degree Days 7 14  
Month to date heating degree days 10 28  
Since 1 July heating degree days 4685 4194  
Cooling Degree Days 0 0  
Month to date cooling degree days 0 0  
Year to date cooling degree days 0 3  
Growing Degree Days 8 (Base 50)    
Moisture  
Dew Point 47 °F    
Average Humidity 67    
Maximum Humidity 77    
Minimum Humidity 56    
Precipitation  
Precipitation 0.51 in 0.14 in 1.35 in (1897)
Month to date precipitation 0.53 0.28  
Year to date precipitation 7.33 10.79  
Snow  
Snow 0.00 in 0.00 in T in (1993)
Month to date snowfall 0.0 0.0  
Since 1 July snowfall 12.6 11.7  
Snow Depth 0.00 in    
Sea Level Pressure  
Sea Level Pressure 30.00 in    
Wind  
Wind Speed 8 mph (ENE)    
Max Wind Speed 22 mph    
Max Gust Speed 25 mph    
Visibility 9 miles    
Events Rain , Thunderstorm    
T = Trace of Precipitation, MM = Missing Value Source: NWS Daily Summary

Daily Weather History Graph

Daily Weather History Graph

Search for Another Location

Airport:

Trip Planner

Search our weather history database for the weather conditions in past years. The results will help you decide how hot, cold, wet, or windy it might be!

Date:

Astronomy

Apr. 02, 2014 Rise Set
Actual Time 6:33 AM CDT 7:14 PM CDT
Civil Twilight 6:07 AM CDT 7:40 PM CDT
Nautical Twilight 5:35 AM CDT 8:12 PM CDT
Astronomical Twilight 5:03 AM CDT 8:44 PM CDT
Moon 8:20 AM CDT (4/2) 10:33 PM CDT (4/2)
Length of Visible Light 13h 33m
Length of Day
12h 40m
Waxing Crescent, 10% of the Moon is Illuminated
Apr 2
Waxing Crescent
Apr 7
First Quarter
Apr 15
Full
Apr 22
Last Quarter
Apr 29
New

Hourly Weather History & Observations

Time (CDT) Temp. Dew Point Humidity Pressure Visibility Wind Dir Wind Speed Gust Speed Precip Events Conditions
12:54 AM 55.0 °F 42.1 °F 62% 30.05 in 10.0 mi North 3.5 mph - N/A   Overcast
1:54 AM 55.0 °F 41.0 °F 59% 30.06 in 10.0 mi NNE 6.9 mph - N/A   Overcast
2:54 AM 54.0 °F 42.1 °F 64% 30.06 in 10.0 mi NE 4.6 mph - N/A   Overcast
3:54 AM 53.1 °F 43.0 °F 69% 30.04 in 10.0 mi NNE 8.1 mph - 0.00 in   Overcast
4:54 AM 52.0 °F 42.1 °F 69% 30.05 in 10.0 mi NE 8.1 mph - N/A   Overcast
5:54 AM 52.0 °F 42.1 °F 69% 30.05 in 10.0 mi ENE 9.2 mph - N/A   Overcast
7:38 AM 52.0 °F 42.1 °F 69% 30.11 in 10.0 mi NNE 12.7 mph - N/A   Overcast
7:54 AM 51.1 °F 44.1 °F 77% 30.09 in 9.0 mi NNE 12.7 mph - N/A   Overcast
8:54 AM 52.0 °F 44.1 °F 74% 30.08 in 10.0 mi ENE 11.5 mph - N/A   Overcast
9:54 AM 54.0 °F 44.1 °F 69% 30.06 in 10.0 mi East 15.0 mph - N/A   Mostly Cloudy
10:54 AM 57.0 °F 44.1 °F 62% 30.04 in 10.0 mi ESE 10.4 mph - N/A   Partly Cloudy
11:54 AM 59.0 °F 45.0 °F 60% 30.02 in 10.0 mi East 9.2 mph - N/A   Clear
12:49 PM 62.6 °F 46.4 °F 55% 30.03 in 9.0 mi ESE 8.1 mph - N/A   Overcast
12:54 PM 62.1 °F 46.0 °F 56% 30.02 in 9.0 mi ESE 8.1 mph - N/A   Overcast
1:35 PM 62.1 °F 46.9 °F 58% 30.01 in 9.0 mi SE 8.1 mph - N/A   Mostly Cloudy
1:54 PM 63.0 °F 46.9 °F 56% 29.99 in 9.0 mi ESE 6.9 mph - N/A   Mostly Cloudy
2:54 PM 64.0 °F 48.0 °F 56% 29.98 in 10.0 mi ENE 8.1 mph - N/A   Overcast
3:54 PM 61.0 °F 52.0 °F 72% 29.98 in 10.0 mi North 11.5 mph - N/A   Mostly Cloudy
4:54 PM 59.0 °F 50.0 °F 72% 29.96 in 10.0 mi NE 13.8 mph - N/A   Partly Cloudy
5:54 PM 59.0 °F 48.9 °F 69% 29.94 in 10.0 mi ENE 13.8 mph 21.9 mph N/A   Scattered Clouds
6:54 PM 59.0 °F 48.9 °F 69% 29.95 in 10.0 mi ENE 8.1 mph - N/A   Mostly Cloudy
7:54 PM 59.0 °F 48.9 °F 69% 29.95 in 10.0 mi Variable 3.5 mph - N/A   Scattered Clouds
8:54 PM 59.0 °F 48.9 °F 69% 29.96 in 10.0 mi East 5.8 mph - N/A   Partly Cloudy
9:54 PM 57.9 °F 50.0 °F 75% 29.95 in 10.0 mi ESE 5.8 mph - N/A   Partly Cloudy
10:30 PM 57.9 °F 50.0 °F 75% 29.96 in 10.0 mi Calm Calm - N/A Thunderstorm Mostly Cloudy
10:47 PM 57.9 °F 51.1 °F 78% 29.97 in 10.0 mi Calm Calm - 0.00 in Rain , Thunderstorm Light Thunderstorms and Rain
10:54 PM 57.2 °F 51.8 °F 82% 29.96 in 1.8 mi SE 3.5 mph - N/A Rain , Thunderstorm Heavy Thunderstorms and Rain
11:08 PM 55.0 °F 52.0 °F 89% 29.96 in 2.5 mi ENE 4.6 mph - 0.20 in Rain , Thunderstorm Thunderstorms and Rain
11:15 PM 55.9 °F 53.1 °F 90% 29.95 in 7.0 mi ESE 6.9 mph - 0.20 in Rain , Thunderstorm Light Thunderstorms and Rain
11:24 PM 55.9 °F 52.0 °F 87% 29.95 in 8.0 mi ESE 5.8 mph - 0.21 in Rain , Thunderstorm Light Rain
11:32 PM 55.9 °F 52.0 °F 87% 29.95 in 10.0 mi East 4.6 mph - 0.21 in Rain , Thunderstorm Light Thunderstorms and Rain
11:54 PM 55.9 °F 53.1 °F 90% 29.94 in 10.0 mi ENE 4.6 mph - 0.25 in Thunderstorm Thunderstorm